Погода в Ранонге

Таиланд     9°58′27″N   98°39′09″E
темп.,
°C
ветер,
м/с
пор.,
м/с
влажн.,
%
обл.,
%
осадки,
мм/ч
давл.,
гПа
погр.,
м
26 мая, чт
чт2601:00+24зюз249799 1.1 1010165
04:00+24зюз259582 0.3 1009155
07:00+25зюз269146 1.2 1010291
10:00+27з378157 2.3 1011909
13:00+28з487742 4.1 10091058
16:00+27з498245 2.1 1007988
19:00+24з399371 4.7 1008586
22:00+24з379472 2.2 1010310
27 мая, пт
пт2701:00+24зюз31092100 4.6 1009662
04:00+24з41190100 1.8 1007665
07:00+25з31090100 2.6 1008699
10:00+27з41079100 0.8 10101215
13:00+28з4876100 2.2 10091050
16:00+25зюз3991100 3.2 1007768
19:00+24зюз2596100 6.3 1008328
22:00+24зюз3796100 3.6 1009423
28 мая, сб
сб2801:00+24зюз3994100 9.2 1008479
04:00+24з3995100 7.1 1006695
07:00+23з31091100 11.9 1008639
10:00+24з31094100 2.6 1010758
13:00+23з31095100 7.3 1009740
16:00+23зюз41194100 5.3 1007817
19:00+23зюз31191100 5.9 1008609
22:00+24зюз31194100 2.1 1010727
29 мая, вс
вс2901:00+24з3109391 4.8 1008666
04:00+23зюз389576 5.6 1007456
07:00+24зюз3109489 8.6 1009717
10:00+25з399197 3.4 1010899
13:00+25з3991100 6.8 1009906
16:00+25з3992100 3.4 1008862
19:00+24з31094100 6.1 1008702
22:00+24з31094100 4.9 1010638
30 мая, пн
пн3001:00+24з31094100 9.5 1008609
04:00+24з3994100 5.1 1007465
07:00+24зюз3894100 11.0 1009378
10:00+25з3991100 5.1 1010768
13:00+25з3991100 9.9 1008777
16:00+24з3993100 6.3 1006657
19:00+24з31093100 11.7 1007547
22:00+24з31092100 1.1 1008555